Regional Weather Roundup
Issued by NWS Wakefield, VA

Home | Current Version | Previous Version | Text Only | Print | Product List | Glossary Off
Versions: 1 2 3 4 5 6 7 8 9 10 11 12 13 14 15 16 17 18 19 20 21 22 23 24 25 26 27 28 29 30 31 32 33 34 35 36 37 38 39 40 41 42 43 44 45 46 47 48 49 50

000
ASUS41 KAKQ 231510
RWRAKQ

REGIONAL WEATHER ROUNDUP
NATIONAL WEATHER SERVICE WAKEFIELD VA
1000 AM EST SUN NOV 23 2014

Note: "fair" indicates few or no clouds below 12,000 feet with no
significant weather and/or obstructions to visibility. * = Denotes
station may not report precipitation (e.g., rain,snow,etc.),
thunder or fog.

VAZ042-051-052>054-056-231600-
NORTHERN VIRGINIA

CITY           SKY/WX    TMP DP  RH WIND       PRES   REMARKS
WASH NATIONAL  CLOUDY    45  24  43 S6        30.23F
DULLES         PTSUNNY   42  21  43 S5        30.21S
FORT BELVOIR   CLOUDY    44  22  41 SE3       30.22F
QUANTICO       CLOUDY    43  25  49 CALM      30.24S
FREDERICKSBRG* CLOUDY    46  25  42 SW3       30.21F
STAFFORD*      CLOUDY    42  22  45 CALM      30.26S
WARRENTON      CLOUDY    46  29  52 SW6       30.20S
CULPEPER*      CLOUDY    43  23  45 SW5       30.20F
MANASSAS*      SUNNY     43  27  52 CALM      30.21S
LEESBURG*      PTSUNNY   41  30  65 CALM      30.21S
WINCHESTER     PTSUNNY   46  14  27 SW6       30.16F
FRONT ROYAL*   CLOUDY    46  27  46 SW3       30.15F
LURAY*         CLOUDY    45  32  61 CALM      30.18F
$$

VAZ048-049-060>072-079>083-231600-
CENTRAL AND SOUTH CENTRAL VIRGINIA

CITY           SKY/WX    TMP DP  RH WIND       PRES   REMARKS
RICHMOND       CLOUDY    47  26  44 S6        30.25S
CHESTERFIELD*  CLOUDY    46  21  36 CALM      30.26R
PETERSBURG*    CLOUDY    43  29  57 CALM      30.25F
HANOVER        CLOUDY    47  25  42 S5        30.25F
TAPPAHANNOCK*  CLOUDY    50  23  34 CALM      30.25S
QUINTON*       FAIR      43  29  59 CALM      30.25S
CHARLOTTSVILLE CLOUDY    44  23  43 S5        30.18F
GORDONSVILLE*  CLOUDY    41  24  49 SW3       30.19F
ORANGE*        CLOUDY    43  27  52 S5        30.21F
LOUISA*        CLOUDY    46  23  39 S6        30.19F
BUMPASS*       FAIR      47  23  39 SW5       30.22S
FARMVILLE*     CLOUDY    46  25  45 SW5       30.21F
CREWE*         CLOUDY    42  27  54 CALM      30.23F
FORT PICKETT*  CLOUDY    45  28  50 CALM      30.23F
LUNENBURG*     CLOUDY    44  31  58 CALM      30.23F
CHASE CITY*    FAIR      45  29  54 CALM      30.23F
CLARKSVILLE*   FAIR      43  32  65 CALM      30.23F
SOUTH HILL*    CLOUDY    43  31  63 CALM      30.30F
LAWRENCEVILLE* CLOUDY    44  33  65 CALM      30.24F
$$

VAZ088>098-231600-
SOUTHEAST VIRGINIA

CITY           SKY/WX    TMP DP  RH WIND       PRES   REMARKS
NORFOLK        CLOUDY    50  38  63 CALM      30.26S
VIRGINIA BEACH CLOUDY    50  39  66 CALM      30.26S
NORFOLK NAVAL  CLOUDY    52  38  58 CALM      30.27S
WEST POINT*    CLOUDY    48  30  49 CALM      30.28R
SALUDA*        FAIR      47  33  58 CALM      30.26R
NEWPORT NEWS   CLOUDY    49  37  63 CALM      30.26S
LANGLEY AFB    CLOUDY    48  40  72 SW3       30.27R
FORT EUSTIS    CLOUDY    46  35  66 CALM      30.25R
WILLIAMSBURG*  CLOUDY    48  37  66 CALM      30.27R
HR EXEC AP*    CLOUDY    45  36  70 CALM      30.29R
FRANKLIN*      CLOUDY    45  36  70 CALM      30.27R
WAKEFIELD      CLOUDY    45  33  63 CALM      30.27R
$$

VAZ020-022-025-037-045-231600-
WEST CENTRAL AND SOUTHWEST VIRGINIA

CITY           SKY/WX    TMP DP  RH WIND       PRES   REMARKS
STAUNTON*      CLOUDY    46  27  46 CALM      30.19F
WAYNESBORO*    CLOUDY    43  26  50 CALM      30.17F
HOT SPRINGS VA CLOUDY    51  38  59 S9        30.13F
LYNCHBURG      CLOUDY    39  25  57 S5        30.21F
DANVILLE       CLOUDY    43  28  55 CALM      30.23F
SOUTH BOSTON*  CLOUDY    40  28  62 CALM      30.23F
MARTINSVILLE   CLOUDY    42  31  64 CALM      30.23F
ROANOKE        CLOUDY    38  24  57 CALM      30.22F
BLACKSBURG     CLOUDY    45  34  65 CALM      30.19F
DUBLIN*        CLOUDY    40  29  66 CALM      30.17F
MARION*        PTSUNNY   45  33  64 NE7       30.16F
HILLSVILLE*    PTSUNNY   50  42  74 S6        30.16F
RICHLANDS*     CLOUDY    56  43  61 SE9       30.07F
WISE*          PTSUNNY   52  37  58 SE8       30.06F
ABINGDON*      PTSUNNY   53  40  63 E8        30.08F
$$

MDZ021>025-VAZ099-100-231600-
SOUTHERN MARYLAND AND THE DELMARVA PENINSULA

CITY           SKY/WX    TMP DP  RH WIND       PRES   REMARKS
PATUXENT RIVER CLOUDY    49  27  42 S7        30.24S
BAY BRIDGE APT   N/A     46  27  46 S7        30.23S
LEONARDTOWN    CLOUDY    50  25  37 S5        30.25S
DOVER          PTSUNNY   47  28  48 S8        30.22F
GEORGETOWN     CLOUDY    51  32  48 S6        30.26F
EASTON         NOT AVBL
CAMBRIDGE      CLOUDY    48  34  57 SE5       30.24S
SALISBURY      CLOUDY    49  37  63 S5        30.26F
OCEAN CITY     CLOUDY    49  36  61 SW3       30.27F
WALLOPS ISLAND CLOUDY    49  38  65 CALM      30.27F
ACCOMACK*      CLOUDY    48  37  66 CALM      30.26S
$$

NCZ012>017-030>032-231600-
NORTH CENTRAL AND EASTERN NORTH CAROLINA

CITY           SKY/WX    TMP DP  RH WIND       PRES   REMARKS
ROANOKE RAPIDS CLOUDY    43  34  70 CALM      30.27R
RALEIGH        CLOUDY    47  34  60 CALM      30.24F
ELIZABETH CITY CLOUDY    50  42  74 CALM      30.26F
AHOSKIE*         N/A     46  37  71 CALM      30.27R
EDENTON*       CLOUDY    47  42  81 CALM      30.25F
CURRITUCK*     CLOUDY    46  41  82 CALM      30.27S
KILL DEVIL HLS CLOUDY    59  50  73 SE6       30.25F
MANTEO         CLOUDY    59  49  71 SE6       30.26F
CAPE HATTERAS  LGT RAIN  60  54  80 E5        30.27F
TARBORO*       CLOUDY    45  37  73 CALM      30.29R
GOLDSBORO      LGT RAIN  48  45  87 CALM      30.26R
WASHINGTON     CLOUDY    49  43  78 CALM      30.26S
GREENVILLE     CLOUDY    48  39  71 CALM      30.28R
NEW BERN       CLOUDY    55  48  77 CALM      30.27R
WILMINGTON     LGT RAIN  59  58  96 SE5       30.24S
$$

VAZ048-231600-
ELSEWHERE

CITY           SKY/WX    TMP DP  RH WIND       PRES   REMARKS
HARRISBURG PA  PTSUNNY   41  25  53 CALM      30.21F
BALTIMORE      PTSUNNY   42  21  43 CALM      30.22S
ANNAPOLIS      CLOUDY    46  23  40 S8        30.23S
ANDREWS AFB    CLOUDY    45  22  39 S7        30.21F
PHILADELPHIA   PTSUNNY   48  23  37 SW12      30.23F
WILDWOOD NJ*   CLOUDY    52  28  40 SW12      30.23F
HENDERSON NC   CLOUDY    47  31  54 CALM      30.24F
GREENSBORO     CLOUDY    49  27  42 SE5       30.21S
ROCKY MOUNT    CLOUDY    47  35  63 CALM      30.28R
$$

VAZ100-231600-
MARINE

STATION/POSITION TIME  TEMP    WIND        PRES    WAVE   SWELL
                       AIR SEA DIR/SP/G            HT/PER HT/PER
                 (UTC) (F)     (DEG/KT/KT) (MB)    (FT/S) (FT/S)
CAPE MAY NJ      1500   47 46  220/  6/  8 1024.3S
LEWES DE         1500   51 46  220/  8/ 11 1024.1F
15NM E FENWICK I 1500   52 54              1025.1F   3/ 5
OCEAN-CITY-INLET 1500   47 49  200/  4/  4 1024.5F
WACHAPREAGUE VA  1500   46 41  210/  4/  5 1024.6S
THOMAS POINT MD  1500   46 47  190/ 11/ 12 1024.5F
GOOSES REEF MD   1500   47        CALM     1024.3F
COVE POINT MD    1500   47     190/  5/  5 1023.8S
SOLOMONS ISLAND  1500      47                N/A
BISHOPS HEAD MD  1500   44 39  180/  9/ 10   N/A
PINEY POINT MD   1500          180/  2/  2   N/A
POTOMAC MD       1500   48     220/  8/  8 1023.6R
CAMBRIDGE MD     1500   48 42  190/  2/  7 1023.9S
LEWISETTA VA     1500   47 42  220/  6/  7 1024.0S
RAPPAHANNOCK LGT 1500          190/  4/  5 1025.2R
STINGRAY PT      1500   46     200/  2/  2 1025.2R
YORK RVR RNG VA  1500   47      CALM  /  1 1024.3R
YORKTOWN VA      1500   47 50  250/  2/  3 1024.3S
JAMESTOWN VA     1500   44     150/  2/  2   N/A
DOMINION TERM VA 1500   45     130/  2/  2 1024.4S
KIPTOPEKE VA     1500      52  150/  4/  5   N/A
CHES BAY BRIDGE  1500   47 51  150/  4/  5 1024.1R
CAPE HENRY VA    1500   50     160/  5/  6 1023.3R
CHESAPEAKE LGHT  1400   52     190/  4/  4 1025.5F
WILLOUBY STN VA  1500   48      CALM  /  1 1023.2R
S CRANEY ISL VA  1500          180/  3/  4 1024.4R
CAPE HENRY BUOY  1500      55                N/A     1/ 9
1ST LANDING BUOY 1500   50      80/  4/  6 1024.2R
CAPE CHARLES BUO 1500      54                N/A     1/ 8   2/ 8
64NM E OF VA BCH 1500   64 63  180/ 10/ 14 1024.6F   2/ 8   2/ 8
DUCK PIER NC     1500   56 55  150/  8/  9 1023.8F
44100 DUCK FRF   1500      58                N/A     2/ 8
44056 DUCK FRF   1500      56                N/A     1/ 8
OREGON INLET NC  1500   59 50  110/  4/  6 1024.8F
HATTERAS NC      1500   62 51  100/  5/  7 1025.2S
DIAMOND SHLS NC  1500   69     150/ 14/ 16 1025.2F   3/ 8   2/ 8



USA.gov is the U.S. government's official web portal to all federal, state and local government web resources and services.